Change the Weather History Date:

Saturday, December 21, 2013

  Actual Average Record
Temperature  
Mean Temperature 58 °F 44 °F  
Max Temperature 70 °F 54 °F 78 °F (2010)
Min Temperature 46 °F 35 °F 16 °F (1951)
Degree Days  
Heating Degree Days 7 21  
Month to date heating degree days 395 396  
Since 1 July heating degree days 920 854  
Cooling Degree Days 0 0  
Month to date cooling degree days 2 0  
Year to date cooling degree days 2354 2204  
Growing Degree Days 8 (Base 50)    
Moisture  
Dew Point 54 °F    
Average Humidity 95    
Maximum Humidity 100    
Minimum Humidity 90    
Precipitation  
Precipitation 2.42 in 0.16 in 2.42 in (2013)
Month to date precipitation 5.83 3.65  
Year to date precipitation 45.34 48.25  
Snow  
Snow 0.00 in - - ()
Month to date snowfall T  
Since 1 July snowfall 0.1  
Snow Depth 0.00 in    
Sea Level Pressure  
Sea Level Pressure 29.64 in    
Wind  
Wind Speed 9 mph (WSW)    
Max Wind Speed 23 mph    
Max Gust Speed 35 mph    
Visibility 5 miles    
Events Rain , Thunderstorm    
T = Trace of Precipitation, MM = Missing Value Source: NWS Daily Summary

Daily Weather History Graph

Daily Weather History Graph

Search for Another Location

Airport or City:

Trip Planner

Search our weather history database for the weather conditions in past years. The results will help you decide how hot, cold, wet, or windy it might be!

Date:

Astronomy

Dec. 21, 2013 Rise Set
Actual Time 7:16 AM CST 5:12 PM CST
Civil Twilight 6:48 AM CST 5:39 PM CST
Nautical Twilight 6:17 AM CST 6:11 PM CST
Astronomical Twilight 5:47 AM CST 6:41 PM CST
Moon 9:18 PM CST (12/21) 9:52 AM CST (12/21)
Length of Visible Light 10h 51m
Length of Day
9h 56m
Waning Gibbous, 84% of the Moon is Illuminated
Dec 21
Waning Gibbous
Dec 25
Last Quarter
Jan 1
New
Jan 7
First Quarter
Jan 15
Full

Hourly Weather History & Observations

Time (CST) Temp. Windchill Dew Point Humidity Pressure Visibility Wind Dir Wind Speed Gust Speed Precip Events Conditions
12:38 AM 69.8 °F - 68.0 °F 94% 29.70 in 6.0 mi South 15.0 mph 21.9 mph 0.02 in Rain Light Rain
12:45 AM 69.8 °F - 68.0 °F 94% 29.70 in 7.0 mi South 12.7 mph 21.9 mph 0.02 in Rain Light Rain
12:53 AM 69.1 °F - 68.0 °F 96% 29.69 in 8.0 mi South 10.4 mph 18.4 mph 0.02 in   Overcast
1:00 AM 69.8 °F - 68.0 °F 94% 29.69 in 7.0 mi South 9.2 mph - N/A Thunderstorm Thunderstorm
1:07 AM 69.8 °F - 68.0 °F 94% 29.70 in 1.8 mi South 16.1 mph 24.2 mph 0.16 in Rain , Thunderstorm Light Thunderstorms and Rain
1:10 AM 69.8 °F - 68.0 °F 94% 29.69 in 0.8 mi SSW 12.7 mph 24.2 mph 0.40 in Rain , Thunderstorm Heavy Thunderstorms and Rain
1:14 AM 69.8 °F - 66.2 °F 88% 29.69 in 0.8 mi WSW 11.5 mph 24.2 mph 0.50 in Rain , Thunderstorm Heavy Thunderstorms and Rain
1:20 AM 69.8 °F - 66.2 °F 88% 29.68 in 1.5 mi South 17.3 mph 25.3 mph 0.52 in Rain , Thunderstorm Thunderstorms and Rain
1:22 AM 69.8 °F - 66.2 °F 88% 29.67 in 2.5 mi South 12.7 mph 25.3 mph 0.52 in Rain , Thunderstorm Light Thunderstorms and Rain
1:29 AM 69.8 °F - 68.0 °F 94% 29.68 in 10.0 mi South 16.1 mph 27.6 mph 0.52 in Rain , Thunderstorm Light Thunderstorms and Rain
1:33 AM 69.8 °F - 68.0 °F 94% 29.68 in 10.0 mi South 15.0 mph 27.6 mph 0.52 in Thunderstorm Overcast
1:36 AM 69.8 °F - 68.0 °F 94% 29.68 in 9.0 mi South 15.0 mph 24.2 mph 0.52 in   Overcast
1:42 AM 69.8 °F - 68.0 °F 94% 29.68 in 9.0 mi South 17.3 mph 24.2 mph 0.52 in   Overcast
1:53 AM 69.1 °F - 68.0 °F 96% 29.66 in 9.0 mi South 16.1 mph 25.3 mph 0.53 in   Overcast
2:05 AM 69.8 °F - 68.0 °F 94% 29.67 in 9.0 mi South 15.0 mph 24.2 mph N/A   Overcast
2:53 AM 69.1 °F - 66.9 °F 93% 29.65 in 9.0 mi South 12.7 mph - N/A   Mostly Cloudy
3:53 AM 69.1 °F - 66.9 °F 93% 29.63 in 10.0 mi South 5.8 mph - N/A   Overcast
4:12 AM 55.4 °F - 53.6 °F 94% 29.64 in 2.5 mi NW 8.1 mph 18.4 mph N/A   Overcast
4:21 AM 53.6 °F - 53.6 °F 100% 29.63 in 2.0 mi Calm Calm - 0.00 in Rain Light Rain
4:48 AM 51.8 °F - 50.0 °F 94% 29.64 in 2.5 mi WNW 10.4 mph - 0.01 in Rain , Thunderstorm Light Rain
4:53 AM 50.0 °F - 48.9 °F 96% 29.65 in 2.5 mi WNW 17.3 mph 21.9 mph 0.01 in Rain , Thunderstorm Light Rain
5:01 AM 48.2 °F - 46.4 °F 93% 29.67 in 5.0 mi WNW 13.8 mph - 0.00 in Rain , Thunderstorm Light Rain
5:22 AM 46.4 °F 45.2 °F 46.4 °F 100% 29.66 in 2.5 mi Variable 3.5 mph 16.1 mph 0.10 in Rain Rain
5:36 AM 46.4 °F 41.5 °F 46.4 °F 100% 29.66 in 3.0 mi NW 10.4 mph - 0.15 in Rain , Thunderstorm Thunderstorms and Rain
5:40 AM 46.4 °F 40.4 °F 46.4 °F 100% 29.65 in 1.8 mi NW 13.8 mph - 0.25 in Rain , Thunderstorm Heavy Thunderstorms and Rain
5:43 AM 46.4 °F 40.1 °F 44.6 °F 93% 29.66 in 1.0 mi NW 15.0 mph 20.7 mph 0.35 in Rain , Thunderstorm Heavy Thunderstorms and Rain
5:53 AM 46.0 °F 39.9 °F 45.0 °F 96% 29.69 in 1.8 mi WNW 13.8 mph - 0.45 in Rain Heavy Rain
6:08 AM 46.4 °F 42.4 °F 46.4 °F 100% 29.68 in 1.2 mi WNW 8.1 mph - 0.22 in Rain Heavy Rain
6:19 AM 46.4 °F 42.4 °F 46.4 °F 100% 29.68 in 2.0 mi NW 8.1 mph - 0.30 in Rain Light Rain
6:26 AM 46.4 °F 42.9 °F 46.4 °F 100% 29.67 in 6.0 mi NNW 6.9 mph - 0.31 in Rain Light Rain
6:36 AM 46.4 °F 44.3 °F 44.6 °F 93% 29.66 in 9.0 mi NNW 4.6 mph - 0.31 in Rain Light Rain
6:50 AM 46.4 °F 42.9 °F 44.6 °F 93% 29.65 in 2.0 mi WNW 6.9 mph - 0.39 in Rain Rain
6:53 AM 46.0 °F 43.9 °F 45.0 °F 96% 29.64 in 3.0 mi WNW 4.6 mph - 0.40 in Rain Rain
7:06 AM 46.4 °F 44.3 °F 44.6 °F 93% 29.63 in 2.5 mi NE 4.6 mph - 0.05 in Rain Rain
7:09 AM 46.4 °F 43.5 °F 44.6 °F 93% 29.63 in 3.0 mi ENE 5.8 mph - 0.06 in Rain Rain
7:53 AM 46.9 °F - 46.0 °F 97% 29.64 in 2.5 mi West 4.6 mph - 0.12 in Rain Heavy Rain
8:15 AM 48.2 °F - 46.4 °F 93% 29.62 in 4.0 mi ESE 4.6 mph - 0.09 in Rain Rain
8:25 AM 48.2 °F - 46.4 °F 93% 29.60 in 2.5 mi East 4.6 mph - 0.12 in Rain Rain
8:34 AM 48.2 °F - 48.2 °F 100% 29.61 in 7.0 mi East 4.6 mph - 0.12 in Rain Light Rain
8:50 AM 50.0 °F - 48.2 °F 94% 29.63 in 1.8 mi ESE 4.6 mph - 0.18 in Rain Heavy Rain
8:53 AM 50.0 °F - 48.9 °F 96% 29.62 in 1.8 mi East 4.6 mph - 0.18 in Rain Rain
9:08 AM 51.8 °F - 50.0 °F 94% 29.63 in 3.0 mi SE 6.9 mph - 0.06 in Rain Rain
9:23 AM 51.8 °F - 51.8 °F 100% 29.63 in 1.8 mi ESE 4.6 mph - 0.12 in Rain Heavy Rain
9:32 AM 51.8 °F - 51.8 °F 100% 29.62 in 3.0 mi ESE 4.6 mph - 0.14 in Rain Rain
9:53 AM 53.1 °F - 52.0 °F 96% 29.60 in 3.0 mi ESE 8.1 mph - 0.19 in Rain Rain
10:15 AM 53.6 °F - 53.6 °F 100% 29.60 in 7.0 mi ESE 6.9 mph - 0.05 in Rain Light Rain
10:43 AM 55.4 °F - 55.4 °F 100% 29.58 in 10.0 mi ESE 5.8 mph - 0.06 in Rain Light Rain
10:53 AM 55.9 °F - 55.0 °F 97% 29.57 in 10.0 mi East 4.6 mph - 0.06 in Rain Light Rain
11:18 AM 51.8 °F - 50.0 °F 94% 29.63 in 4.0 mi WNW 16.1 mph 25.3 mph 0.06 in Rain Rain
11:31 AM 50.0 °F - 48.2 °F 94% 29.62 in 5.0 mi NW 15.0 mph 23.0 mph 0.08 in Rain Light Rain
11:44 AM 48.2 °F - 46.4 °F 93% 29.62 in 7.0 mi WNW 9.2 mph 19.6 mph 0.09 in Rain Light Rain
11:53 AM 48.9 °F - 46.9 °F 93% 29.60 in 5.0 mi NNW 9.2 mph - 0.10 in Rain Light Rain
12:08 PM 48.2 °F - 48.2 °F 100% 29.62 in 2.0 mi NW 9.2 mph - 0.05 in Rain Heavy Rain
12:15 PM 48.2 °F - 48.2 °F 100% 29.57 in 2.0 mi North 6.9 mph - 0.06 in Rain Rain
12:19 PM 48.2 °F - 48.2 °F 100% 29.58 in 3.0 mi NNE 6.9 mph - 0.07 in Rain Rain
12:53 PM 51.1 °F - 50.0 °F 96% 29.55 in 4.0 mi NNW 12.7 mph - 0.09 in Rain Heavy Rain
1:03 PM 53.6 °F - 51.8 °F 94% 29.56 in 5.0 mi NW 10.4 mph - 0.01 in Rain Light Rain
1:18 PM 53.6 °F - 51.8 °F 94% 29.52 in 6.0 mi North 11.5 mph - 0.03 in Rain Light Rain
1:53 PM 54.0 °F - 53.1 °F 97% 29.53 in 5.0 mi NNE 8.1 mph - 0.06 in Rain Rain
2:09 PM 55.4 °F - 53.6 °F 94% 29.62 in 1.8 mi West 8.1 mph - 0.05 in Rain Heavy Rain
2:19 PM 55.4 °F - 53.6 °F 94% 29.62 in 3.0 mi West 8.1 mph - 0.07 in Rain Rain
2:27 PM 55.4 °F - 53.6 °F 94% 29.63 in 2.0 mi West 5.8 mph - 0.10 in Rain Heavy Rain
2:45 PM 53.6 °F - 53.6 °F 100% 29.60 in 4.0 mi Calm Calm - 0.14 in Rain Light Rain
2:53 PM 54.0 °F - 53.1 °F 97% 29.59 in 2.5 mi West 4.6 mph - 0.16 in Rain Rain
3:05 PM 55.4 °F - 53.6 °F 94% 29.61 in 5.0 mi West 4.6 mph - 0.02 in Rain Light Rain
3:53 PM 54.0 °F - 53.1 °F 97% 29.55 in 10.0 mi East 5.8 mph - 0.05 in Rain Light Rain
4:53 PM 54.0 °F - 53.1 °F 97% 29.56 in 10.0 mi ESE 5.8 mph - 0.00 in   Partly Cloudy
5:53 PM 54.0 °F - 52.0 °F 93% 29.59 in 10.0 mi South 3.5 mph - N/A   Clear
6:45 PM 53.6 °F - 51.8 °F 94% 29.64 in 10.0 mi WSW 8.1 mph - N/A   Scattered Clouds
6:53 PM 53.1 °F - 52.0 °F 96% 29.65 in 10.0 mi SW 8.1 mph - N/A   Mostly Cloudy
7:53 PM 54.0 °F - 52.0 °F 93% 29.70 in 10.0 mi SW 10.4 mph - N/A   Overcast
8:53 PM 53.1 °F - 51.1 °F 93% 29.73 in 10.0 mi SW 12.7 mph - N/A   Overcast
9:53 PM 53.1 °F - 51.1 °F 93% 29.73 in 10.0 mi SW 10.4 mph - N/A   Overcast
10:04 PM 51.8 °F - 51.8 °F 100% 29.75 in 10.0 mi SW 10.4 mph - N/A   Overcast
10:53 PM 53.1 °F - 51.1 °F 93% 29.76 in 10.0 mi SW 8.1 mph - N/A   Overcast
11:36 PM 53.6 °F - 50.0 °F 88% 29.76 in 10.0 mi WSW 5.8 mph - N/A   Overcast
11:53 PM 53.1 °F - 50.0 °F 89% 29.77 in 10.0 mi WSW 6.9 mph - N/A   Overcast